TimeEDT,TemperatureF,Dew PointF,Humidity,Sea Level PressureIn,VisibilityMPH,Wind Direction,Wind SpeedMPH,Gust SpeedMPH,PrecipitationIn,Events,Conditions,WindDirDegrees,DateUTC
12:53 AM,73.0,72.0,96,30.04,10.0,North,3.5,-,N/A,,Clear,360,2013-09-07 04:53:00
1:53 AM,73.0,71.1,93,30.04,10.0,NE,3.5,-,N/A,,Partly Cloudy,40,2013-09-07 05:53:00
2:53 AM,73.0,71.1,93,30.02,10.0,NNE,3.5,-,N/A,,Clear,30,2013-09-07 06:53:00
3:53 AM,72.0,71.1,97,30.01,10.0,North,6.9,-,N/A,,Clear,360,2013-09-07 07:53:00
4:53 AM,72.0,71.1,97,30.00,10.0,North,6.9,-,N/A,,Scattered Clouds,360,2013-09-07 08:53:00
5:53 AM,72.0,70.0,93,30.00,10.0,NNE,6.9,-,N/A,,Clear,20,2013-09-07 09:53:00
6:53 AM,72.0,70.0,93,30.01,10.0,Calm,Calm,-,0.01,,Clear,0,2013-09-07 10:53:00
7:04 AM,71.6,69.8,94,30.02,10.0,Calm,Calm,-,N/A,,Partly Cloudy,0,2013-09-07 11:04:00
7:53 AM,72.0,70.0,93,30.03,10.0,North,4.6,-,N/A,,Scattered Clouds,10,2013-09-07 11:53:00
8:53 AM,75.0,71.1,87,30.03,10.0,North,5.8,-,N/A,,Clear,10,2013-09-07 12:53:00
9:53 AM,79.0,73.0,82,30.04,10.0,NNE,6.9,-,N/A,,Clear,20,2013-09-07 13:53:00
10:53 AM,82.9,73.9,74,30.04,10.0,NE,9.2,-,N/A,,Clear,40,2013-09-07 14:53:00
11:53 AM,86.0,75.0,70,30.04,10.0,Variable,6.9,-,N/A,,Scattered Clouds,0,2013-09-07 15:53:00
12:53 PM,88.0,71.1,57,30.03,10.0,ENE,6.9,-,N/A,,Partly Cloudy,60,2013-09-07 16:53:00
1:53 PM,87.1,72.0,61,30.01,10.0,Variable,3.5,-,N/A,,Partly Cloudy,0,2013-09-07 17:53:00
2:53 PM,89.1,72.0,57,29.99,10.0,WSW,3.5,-,N/A,,Scattered Clouds,250,2013-09-07 18:53:00
3:39 PM,80.6,69.8,70,30.01,1.2,Variable,4.6,33.4,N/A,,Haze,0,2013-09-07 19:39:00
3:49 PM,80.6,69.8,70,29.99,8.0,SE,13.8,19.6,0.00,Rain,Light Rain,140,2013-09-07 19:49:00
3:53 PM,80.1,71.1,74,29.99,8.0,SE,10.4,19.6,0.00,Rain,Light Rain,130,2013-09-07 19:53:00
4:53 PM,84.9,71.1,63,29.97,10.0,ENE,10.4,-,0.00,,Clear,60,2013-09-07 20:53:00
5:53 PM,82.9,72.0,69,29.96,10.0,ENE,5.8,-,N/A,,Scattered Clouds,70,2013-09-07 21:53:00
6:53 PM,82.9,71.1,67,29.96,10.0,East,8.1,-,N/A,,Partly Cloudy,80,2013-09-07 22:53:00
7:53 PM,80.1,72.0,76,29.97,10.0,East,4.6,-,N/A,,Clear,80,2013-09-07 23:53:00
8:53 PM,79.0,72.0,79,30.00,10.0,East,3.5,-,N/A,,Clear,80,2013-09-08 00:53:00
9:53 PM,77.0,72.0,84,30.01,10.0,ENE,3.5,-,N/A,,Clear,60,2013-09-08 01:53:00
10:53 PM,75.9,72.0,87,30.00,10.0,NE,3.5,-,N/A,,Clear,40,2013-09-08 02:53:00
11:53 PM,75.0,71.1,87,29.99,10.0,NE,4.6,-,N/A,,Clear,50,2013-09-08 03:53:00